^^
Datos históricos de la estación: Murcia-Puente Tocinos
Diario Informe para Julio 12, 2018 Unidades:  Inglés    Métrico   Ambas
Diario Semanal Mensual Anual Configurable
  Máximo: Mínimo: Media:
Temperatura: 92.5 °F 74.1 °F 81.5 °F
Punto de rocio: 70.9 °F 60.6 °F 68.5 °F
Humedad: 86% 35% 67%
Velocidad viento: 13mph 0mph 5.2mph
Racha viento: 21.9mph - -
Viento- - SE
Presión: 29.9 in 29.8 in -
Precipitación: 0 in    
Historical Graphs
 
 
Tabla de datos para Julio 12, 2018
Hora Temperatura Punto de rocio Presión Viento Velocidad viento Racha viento Humedad Intensidad lluvia(por hora) Nubes
00:04 75.9 °F 70.3 °F 29.8 in NE 4.7 mph 5.8 mph 83% 0 in CLR
00:09 75.7 °F 70.5 °F 29.8 in NNE 3.6 mph 10.4 mph 84% 0 in CLR
00:14 75.7 °F 70.5 °F 29.8 in NE 3.6 mph 5.8 mph 84% 0 in CLR
00:19 75.6 °F 70.3 °F 29.8 in NNE 5.2 mph 6.9 mph 84% 0 in CLR
00:24 75.6 °F 70.7 °F 29.8 in NE 5.2 mph 6.9 mph 85% 0 in CLR
00:29 75.6 °F 70.7 °F 29.8 in NE 4.7 mph 5.8 mph 85% 0 in CLR
00:34 75.6 °F 70.7 °F 29.8 in NNE 4.7 mph 4.6 mph 85% 0 in
00:39 75.6 °F 70.7 °F 29.8 in NE 4 mph 5.8 mph 85% 0 in
00:44 75.6 °F 70.7 °F 29.8 in NE 4 mph 4.6 mph 85% 0 in
00:49 75.4 °F 70.5 °F 29.9 in ENE 3.6 mph 4.6 mph 85% 0 in
00:54 75.4 °F 70.5 °F 29.9 in NE 3.6 mph 4.7 mph 85% 0 in
00:59 75.4 °F 70.5 °F 29.9 in NE 3.6 mph 8.1 mph 85% 0 in
01:04 75.2 °F 70.7 °F 29.8 in NE 3.6 mph 6.9 mph 86% 0 in
01:09 75.2 °F 70.7 °F 29.8 in ENE 4.7 mph 4.6 mph 86% 0 in
01:14 75 °F 70.5 °F 29.8 in NNE 4.7 mph 5.8 mph 86% 0 in
01:19 75 °F 70.5 °F 29.9 in ENE 3.6 mph 4.6 mph 86% 0 in
01:24 75 °F 70.5 °F 29.9 in NE 3.6 mph 6.9 mph 86% 0 in
01:29 75 °F 70.5 °F 29.9 in NNE 4 mph 4.6 mph 86% 0 in
01:34 75 °F 70.5 °F 29.9 in North 4 mph 5.2 mph 86% 0 in
01:39 75 °F 70.5 °F 29.9 in NNE 3.6 mph 5.8 mph 86% 0 in
01:44 75 °F 70.5 °F 29.9 in East 3.6 mph 4.6 mph 86% 0 in
01:49 75 °F 70.5 °F 29.9 in ENE 3.6 mph 4.6 mph 86% 0 in
01:54 75 °F 70.5 °F 29.9 in ENE 3.6 mph 6.9 mph 86% 0 in
01:59 75 °F 70.5 °F 29.9 in NNE 3.1 mph 4.7 mph 86% 0 in
02:04 75 °F 70.5 °F 29.9 in NE 3.1 mph 4.6 mph 86% 0 in
02:09 75.2 °F 70.7 °F 29.9 in ENE 3.1 mph 5.8 mph 86% 0 in
02:14 75.4 °F 70.9 °F 29.9 in NE 3.1 mph 4.6 mph 86% 0 in
02:19 75.4 °F 70.9 °F 29.9 in NE 2.9 mph 5.8 mph 86% 0 in
02:24 75.6 °F 70.7 °F 29.9 in NE 2.9 mph 8.1 mph 85% 0 in
02:29 75.6 °F 70.7 °F 29.9 in NE 4 mph 6.9 mph 85% 0 in
02:34 75.6 °F 70.7 °F 29.9 in NE 4 mph 4.6 mph 85% 0 in
02:39 75.7 °F 70.9 °F 29.9 in ENE 3.6 mph 5.4 mph 85% 0 in
02:44 75.7 °F 70.5 °F 29.9 in ENE 3.6 mph 5.8 mph 84% 0 in
02:49 75.9 °F 70.7 °F 29.9 in East 2.9 mph 6.9 mph 84% 0 in
02:54 75.9 °F 70.7 °F 29.9 in NNE 2.9 mph 6.9 mph 84% 0 in
02:59 75.9 °F 70.7 °F 29.9 in NNW 4 mph 4.6 mph 84% 0 in
03:04 76.1 °F 70.9 °F 29.9 in NNW 4 mph 4.6 mph 84% 0 in
03:09 76.3 °F 70.7 °F 29.9 in North 2.9 mph 4.6 mph 83% 0 in
03:14 76.3 °F 70.7 °F 29.9 in NNW 2.9 mph 4.6 mph 83% 0 in
03:19 76.3 °F 70.7 °F 29.9 in NW 2.4 mph 4.7 mph 83% 0 in
03:24 76.3 °F 70.7 °F 29.9 in NNW 2.4 mph 4 mph 83% 0 in
03:29 76.3 °F 70.7 °F 29.9 in NNW 2 mph 4.6 mph 83% 0 in
03:34 76.3 °F 70.7 °F 29.9 in NNW 2 mph 4.6 mph 83% 0 in
03:39 76.3 °F 70.7 °F 29.9 in NNW 2.9 mph 3.1 mph 83% 0 in
03:44 76.3 °F 70.7 °F 29.9 in NNW 2.9 mph 4.6 mph 83% 0 in
03:49 76.1 °F 70.5 °F 29.8 in NNW 2 mph 2.4 mph 83% 0 in
03:54 76.3 °F 70.7 °F 29.8 in NW 2 mph 4.6 mph 83% 0 in
03:59 76.1 °F 70.5 °F 29.8 in NW 2.4 mph 4.6 mph 83% 0 in
04:04 76.1 °F 70.9 °F 29.8 in NW 2.4 mph 3.5 mph 84% 0 in
04:09 75.9 °F 70.7 °F 29.8 in WNW 2.4 mph 4.6 mph 84% 0 in
04:14 75.9 °F 70.7 °F 29.8 in WNW 2.4 mph 2.4 mph 84% 0 in
04:19 75.9 °F 70.7 °F 29.8 in West 2.4 mph 4.6 mph 84% 0 in
04:24 75.9 °F 70.7 °F 29.8 in West 2.4 mph 3.1 mph 84% 0 in
04:29 75.9 °F 70.7 °F 29.8 in West 2.4 mph 3.5 mph 84% 0 in
04:34 75.9 °F 70.7 °F 29.9 in West 2.4 mph 3.5 mph 84% 0 in
04:39 75.9 °F 70.3 °F 29.9 in WNW 2 mph 4.6 mph 83% 0 in
04:44 75.9 °F 70.3 °F 29.9 in WNW 2 mph 4.6 mph 83% 0 in
04:49 75.9 °F 70.3 °F 29.9 in WNW 2 mph   83% 0 in
04:54 75.9 °F 70.3 °F 29.9 in West 2 mph 4.6 mph 83% 0 in
04:59 75.9 °F 70.3 °F 29.9 in NW 1.8 mph 3.5 mph 83% 0 in
05:04 75.7 °F 70.2 °F 29.9 in NW 1.8 mph 4.6 mph 83% 0 in
05:09 75.7 °F 70.2 °F 29.9 in NW 2 mph 2.9 mph 83% 0 in
05:14 75.7 °F 70.2 °F 29.9 in NW 2 mph 3.5 mph 83% 0 in
05:19 75.6 °F 70 °F 29.9 in WNW 1.8 mph 4.6 mph 83% 0 in
05:24 75.6 °F 70.3 °F 29.9 in NW 1.8 mph 3.1 mph 84% 0 in
05:29 75.4 °F 70.2 °F 29.9 in NW 2.9 mph 3.5 mph 84% 0 in
05:34 75.4 °F 70.2 °F 29.9 in NW 2.9 mph 4.6 mph 84% 0 in
05:39 75.2 °F 70 °F 29.9 in NW 2.4 mph 4.3 mph 84% 0 in
05:44 75 °F 70 °F 29.9 in WNW 2.4 mph 4.6 mph 84% 0 in
05:49 75 °F 70 °F 29.9 in WNW 2.4 mph 4.3 mph 84% 0 in
05:54 75 °F 70 °F 29.9 in WNW 2.4 mph 5.8 mph 84% 0 in
05:59 74.8 °F 70 °F 29.9 in West 2.9 mph 4.6 mph 85% 0 in
06:04 74.7 °F 69.8 °F 29.9 in West 2.9 mph 4.6 mph 85% 0 in
06:09 74.7 °F 69.8 °F 29.9 in West 3.1 mph 4.6 mph 85% 0 in
06:14 74.5 °F 69.6 °F 29.9 in WNW 3.1 mph 5.8 mph 85% 0 in
06:19 74.5 °F 70 °F 29.9 in West 3.1 mph 4.6 mph 86% 0 in
06:24 74.5 °F 70 °F 29.9 in WNW 3.1 mph 3.5 mph 86% 0 in
06:29 74.5 °F 70 °F 29.9 in WNW 2.9 mph 2 mph 86% 0 in
06:34 74.5 °F 70 °F 29.9 in WNW 2.9 mph 4.6 mph 86% 0 in
06:39 74.3 °F 69.8 °F 29.9 in WNW 1.8 mph 2.4 mph 86% 0 in
06:44 74.3 °F 69.8 °F 29.9 in WNW 1.8 mph 4.6 mph 86% 0 in
06:49 74.1 °F 69.6 °F 29.9 in WNW 2.4 mph 4.6 mph 86% 0 in
06:54 74.1 °F 69.6 °F 29.9 in WNW 2.4 mph 2.9 mph 86% 0 in
06:59 74.1 °F 69.6 °F 29.9 in WNW 2 mph   86% 0 in
07:04 74.1 °F 69.6 °F 29.9 in WNW 2 mph   86% 0 in
07:09 74.3 °F 69.8 °F 29.9 in Calm     86% 0 in
07:14 74.3 °F 69.8 °F 29.9 in Calm     86% 0 in
07:19 74.3 °F 69.8 °F 29.9 in Calm     86% 0 in
07:24 74.5 °F 70 °F 29.9 in Calm     86% 0 in
07:29 74.3 °F 69.8 °F 29.9 in Calm   3.5 mph 86% 0 in
07:34 74.5 °F 70 °F 29.9 in Calm   3.5 mph 86% 0 in
07:39 74.5 °F 70 °F 29.9 in West 1.8 mph 4.6 mph 86% 0 in
07:44 74.5 °F 70 °F 29.9 in WNW 1.8 mph 3.6 mph 86% 0 in
07:49 74.5 °F 69.6 °F 29.9 in NW 2.4 mph 4.6 mph 85% 0 in
07:54 74.7 °F 69.8 °F 29.9 in West 2.4 mph 4.6 mph 85% 0 in
07:59 74.7 °F 69.8 °F 29.9 in WNW 2.9 mph 3.5 mph 85% 0 in
08:04 74.8 °F 70 °F 29.9 in WNW 2.9 mph   85% 0 in
08:09 75 °F 70 °F 29.9 in WNW 1.4 mph 2.3 mph 84% 0 in
08:14 75.4 °F 70.2 °F 29.9 in West 1.4 mph 3.5 mph 84% 0 in
08:19 75.4 °F 70 °F 29.9 in WSW 1.8 mph 5.8 mph 83% 0 in FEW
08:24 75.6 °F 69.6 °F 29.9 in WSW 1.8 mph 4.6 mph 82% 0 in FEW
08:29 75.6 °F 69.6 °F 29.9 in WSW 3.1 mph 4.6 mph 82% 0 in FEW
08:34 75.6 °F 69.3 °F 29.9 in West 3.1 mph 6.9 mph 81% 0 in FEW
08:39 75.7 °F 69.1 °F 29.9 in West 3.1 mph 4.6 mph 80% 0 in FEW
08:44 75.7 °F 69.1 °F 29.9 in West 3.1 mph 6.9 mph 80% 0 in FEW
08:49 75.9 °F 69.3 °F 29.9 in West 3.6 mph 4.6 mph 80% 0 in FEW
08:54 76.1 °F 69.1 °F 29.9 in West 3.6 mph 2.4 mph 79% 0 in FEW
08:59 76.5 °F 69.4 °F 29.9 in SW 2.4 mph 3.5 mph 79% 0 in FEW
09:04 76.8 °F 69.8 °F 29.9 in South 2.4 mph 4.6 mph 79% 0 in FEW
09:09 77.2 °F 69.8 °F 29.9 in SSE 2 mph 3.5 mph 78% 0 in FEW
09:14 77.5 °F 69.8 °F 29.9 in East 2 mph 3.5 mph 77% 0 in FEW
09:19 77.7 °F 69.3 °F 29.9 in South 2 mph 6.9 mph 75% 0 in FEW
09:24 77.7 °F 69.3 °F 29.9 in WSW 2 mph 4.7 mph 75% 0 in FEW
09:29 77.9 °F 69.3 °F 29.9 in South 4 mph 5.8 mph 75% 0 in FEW
09:34 77.7 °F 69.3 °F 29.9 in South 4 mph 8.1 mph 75% 0 in FEW
09:39 77.5 °F 69.1 °F 29.9 in SSW 4.7 mph 6.9 mph 75% 0 in FEW
09:44 77.9 °F 69.3 °F 29.9 in SE 4.7 mph 5.8 mph 75% 0 in FEW
09:49 78.1 °F 69.1 °F 29.9 in SSE 4 mph 6.9 mph 74% 0 in FEW
09:54 78.1 °F 69.1 °F 29.9 in SSE 4 mph 7.4 mph 74% 0 in FEW
09:59 78.4 °F 69.1 °F 29.9 in South 5.4 mph 5.8 mph 73% 0 in FEW
10:04 79 °F 69.3 °F 29.9 in WSW 5.4 mph 4.3 mph 72% 0 in FEW
10:09 79.2 °F 68.9 °F 29.9 in South 3.1 mph 5.8 mph 71% 0 in FEW
10:14 79.3 °F 68.7 °F 29.9 in South 3.1 mph 5.8 mph 70% 0 in FEW
10:19 79.7 °F 68.5 °F 29.9 in West 3.6 mph 9.2 mph 69% 0 in
10:24 79.5 °F 68.5 °F 29.9 in West 3.6 mph 4.6 mph 69% 0 in
10:29 79.9 °F 68.7 °F 29.9 in SSW 4.3 mph 4.6 mph 69% 0 in
10:34 80.2 °F 68.7 °F 29.9 in West 4.3 mph 5.8 mph 68% 0 in
10:39 80.2 °F 68.4 °F 29.9 in WSW 3.1 mph 4.6 mph 67% 0 in
10:44 80.4 °F 68 °F 29.9 in NNW 3.1 mph 3.5 mph 66% 0 in
10:49 81 °F 68.5 °F 29.9 in WNW 3.6 mph 5.8 mph 66% 0 in
10:54 81.3 °F 68.4 °F 29.9 in NNW 3.6 mph 4.6 mph 65% 0 in
10:59 82 °F 68.2 °F 29.9 in West 2.9 mph 5.2 mph 63% 0 in
11:04 82.6 °F 68.2 °F 29.9 in ESE 2.9 mph 5.8 mph 62% 0 in
11:09 82.9 °F 67.1 °F 29.9 in SSW 2.4 mph 5.8 mph 59% 0 in
11:14 82.9 °F 67.1 °F 29.9 in SE 2.4 mph 4.6 mph 59% 0 in
11:19 83.3 °F 66.9 °F 29.9 in South 3.6 mph 4.6 mph 58% 0 in
11:24 83.7 °F 66.4 °F 29.9 in ESE 3.6 mph 5.8 mph 56% 0 in
11:29 83.7 °F 66.4 °F 29.9 in NE 3.6 mph 4.6 mph 56% 0 in
11:34 84.2 °F 66.7 °F 29.9 in NNE 3.6 mph 4.6 mph 56% 0 in
11:39 84.6 °F 66 °F 29.9 in WNW 3.1 mph 2.4 mph 54% 0 in
11:44 84.9 °F 66.4 °F 29.9 in NNE 3.1 mph 4.6 mph 54% 0 in
11:49 85.3 °F 66.2 °F 29.9 in NW 2 mph 4.6 mph 53% 0 in
11:54 85.5 °F 65.3 °F 29.9 in SE 2 mph 7.4 mph 51% 0 in
11:59 85.6 °F 64.9 °F 29.9 in ESE 2.4 mph 2.3 mph 50% 0 in
12:04 85.8 °F 64.9 °F 29.9 in ESE 2.4 mph 1.2 mph 50% 0 in
12:09 86.7 °F 64.8 °F 29.9 in ESE 2 mph 4.7 mph 48% 0 in
12:14 86.9 °F 64.8 °F 29.9 in SE 2 mph 5.8 mph 48% 0 in
12:19 87.1 °F 64.4 °F 29.9 in NE 3.6 mph 2.3 mph 47% 0 in
12:24 87.3 °F 64 °F 29.9 in SE 3.6 mph 6.9 mph 46% 0 in
12:29 87.4 °F 64.8 °F 29.9 in South 3.6 mph 6.9 mph 47% 0 in
12:34 87.4 °F 64.8 °F 29.9 in West 3.6 mph 6.9 mph 47% 0 in
12:39 87.4 °F 64.8 °F 29.9 in West 3.1 mph 4.6 mph 47% 0 in
12:44 88 °F 64 °F 29.9 in NNE 3.1 mph 4.7 mph 45% 0 in
12:49 88 °F 62.8 °F 29.9 in NNE 2.9 mph 9.2 mph 43% 0 in
12:54 88.2 °F 62.2 °F 29.9 in East 2.9 mph 6.9 mph 42% 0 in
12:59 88.3 °F 62.2 °F 29.9 in SSW 4.7 mph 5.8 mph 42% 0 in
13:04 88.3 °F 62.2 °F 29.9 in East 4.7 mph 5.8 mph 42% 0 in
13:09 88.7 °F 61.3 °F 29.9 in North 2.9 mph 5.8 mph 40% 0 in
13:14 88.9 °F 61.3 °F 29.9 in NE 2.9 mph 6.9 mph 40% 0 in
13:19 89.1 °F 61.5 °F 29.9 in ESE 4.7 mph 6.9 mph 40% 0 in
13:24 89.2 °F 61.9 °F 29.9 in NNE 4.7 mph 4.7 mph 40% 0 in
13:29 89.4 °F 62.6 °F 29.9 in NNE 3.6 mph 6.9 mph 41% 0 in
13:34 89.6 °F 62.1 °F 29.9 in ENE 3.6 mph 12.7 mph 40% 0 in
13:39 89.8 °F 62.2 °F 29.9 in NE 5.9 mph 8.1 mph 40% 0 in
13:44 90.1 °F 61.9 °F 29.9 in NE 5.9 mph 8.1 mph 39% 0 in
13:49 90.5 °F 61.3 °F 29.9 in ENE 4.7 mph 10.4 mph 38% 0 in
13:54 90.7 °F 60.8 °F 29.9 in NNE 4.7 mph 9.2 mph 37% 0 in
13:59 90.5 °F 60.6 °F 29.9 in NNE 5.9 mph 6.9 mph 37% 0 in
14:04 90.9 °F 61 °F 29.9 in NNW 5.9 mph 8.1 mph 37% 0 in
14:09 91.6 °F 61 °F 29.9 in NE 5.9 mph 9.2 mph 36% 0 in
14:14 92.3 °F 61.5 °F 29.9 in ENE 5.9 mph 8.1 mph 36% 0 in
14:19 92.3 °F 60.6 °F 29.9 in NE 4.7 mph 5.8 mph 35% 0 in CLR
14:24 92.3 °F 61.5 °F 29.9 in East 4.7 mph 12.7 mph 36% 0 in CLR
14:29 92.5 °F 63.9 °F 29.9 in ENE 5.2 mph 7.6 mph 39% 0 in CLR
14:34 92.5 °F 66.7 °F 29.8 in SE 5.2 mph 11.5 mph 43% 0 in CLR
14:39 91.9 °F 68.7 °F 29.8 in SE 5.9 mph 12.7 mph 47% 0 in CLR
14:44 91.6 °F 69.1 °F 29.8 in ESE 5.9 mph 12.7 mph 48% 0 in CLR
14:49 91.9 °F 68.7 °F 29.8 in ESE 8.7 mph 13.8 mph 47% 0 in CLR
14:54 91.2 °F 68.7 °F 29.8 in East 8.7 mph 12.7 mph 48% 0 in CLR
14:59 91 °F 68.5 °F 29.8 in South 8.1 mph 11.5 mph 48% 0 in CLR
15:04 91.2 °F 68.2 °F 29.8 in ENE 8.1 mph 12.7 mph 47% 0 in CLR
15:09 91.4 °F 68.4 °F 29.8 in SSE 8.1 mph 11.5 mph 47% 0 in CLR
15:14 91.4 °F 67.6 °F 29.8 in SSE 8.1 mph 13.8 mph 46% 0 in CLR
15:19 91.2 °F 68.2 °F 29.8 in SE 7.6 mph 11.4 mph 47% 0 in CLR
15:24 91.6 °F 67.8 °F 29.8 in SSE 7.6 mph 15 mph 46% 0 in CLR
15:29 91.8 °F 68 °F 29.8 in ENE 7.6 mph 12.7 mph 46% 0 in CLR
15:34 91.6 °F 67.8 °F 29.8 in SE 7.6 mph 13.8 mph 46% 0 in CLR
15:39 91.4 °F 68.4 °F 29.8 in ESE 9.2 mph 19.6 mph 47% 0 in CLR
15:44 91 °F 68.5 °F 29.8 in SE 9.2 mph 13.8 mph 48% 0 in CLR
15:49 91.2 °F 67.5 °F 29.8 in SE 11.4 mph 17.3 mph 46% 0 in CLR
15:54 91.4 °F 67.6 °F 29.8 in SE 11.4 mph 13.8 mph 46% 0 in CLR
15:59 91 °F 67.5 °F 29.8 in SE 9.7 mph 16.1 mph 46% 0 in CLR
16:04 91 °F 67.5 °F 29.8 in SSE 9.7 mph 20.7 mph 46% 0 in CLR
16:09 90.9 °F 67.3 °F 29.8 in SE 10 mph 13.8 mph 46% 0 in CLR
16:14 91 °F 67.5 °F 29.8 in East 10 mph 16.1 mph 46% 0 in CLR
16:19 90.7 °F 67.1 °F 29.8 in SE 10.2 mph 16.1 mph 46% 0 in CLR
16:24 91 °F 67.5 °F 29.8 in ESE 10.2 mph 13.8 mph 46% 0 in CLR
16:29 91.6 °F 67.8 °F 29.8 in East 10 mph 13.8 mph 46% 0 in CLR
16:34 91.4 °F 67.1 °F 29.8 in SE 10 mph 10.4 mph 45% 0 in CLR
16:39 91.2 °F 66.9 °F 29.8 in ENE 8.7 mph 11.5 mph 45% 0 in CLR
16:44 91.2 °F 66.9 °F 29.8 in SE 8.7 mph 13.8 mph 45% 0 in CLR
16:49 91.2 °F 66.9 °F 29.8 in SE 9.7 mph 13 mph 45% 0 in CLR
16:54 91 °F 66.7 °F 29.8 in SE 9.7 mph 13.8 mph 45% 0 in CLR
16:59 91.4 °F 66.4 °F 29.8 in East 9.2 mph 10.4 mph 44% 0 in CLR
17:04 91.6 °F 66.6 °F 29.8 in ESE 9.2 mph 12.7 mph 44% 0 in CLR
17:09 91.8 °F 66.7 °F 29.8 in East 7.6 mph 12.7 mph 44% 0 in CLR
17:14 91.4 °F 66.4 °F 29.8 in SE 7.6 mph 17.3 mph 44% 0 in CLR
17:19 91 °F 65.5 °F 29.8 in ESE 8.5 mph 12.3 mph 43% 0 in
17:24 91.2 °F 66.4 °F 29.8 in ESE 8.5 mph 9.2 mph 44% 0 in
17:29 91.2 °F 66.9 °F 29.8 in ESE 7.4 mph 12.7 mph 45% 0 in
17:34 90.9 °F 66.6 °F 29.8 in East 7.4 mph 12.7 mph 45% 0 in
17:39 90.3 °F 67.5 °F 29.8 in ENE 8.5 mph 15 mph 47% 0 in
17:44 90.3 °F 68 °F 29.8 in NE 8.5 mph 13.8 mph 48% 0 in
17:49 90.1 °F 67.8 °F 29.8 in ENE 8.7 mph 18.4 mph 48% 0 in
17:54 89.8 °F 68.2 °F 29.8 in ENE 8.7 mph 15 mph 49% 0 in
17:59 89.2 °F 68.2 °F 29.8 in NNE 10 mph 18.4 mph 50% 0 in
18:04 88.7 °F 68.2 °F 29.8 in NNE 10 mph 15 mph 51% 0 in
18:09 88.5 °F 68.5 °F 29.8 in NE 10.7 mph 17.3 mph 52% 0 in
18:14 88.5 °F 68.5 °F 29.8 in NE 10.7 mph 19.6 mph 52% 0 in
18:19 88.3 °F 68.5 °F 29.8 in ENE 11.2 mph 15 mph 52% 0 in
18:24 88 °F 68.2 °F 29.8 in NE 11.2 mph 19.6 mph 52% 0 in
18:29 88 °F 68.2 °F 29.8 in NE 10.2 mph 18.4 mph 52% 0 in
18:34 88 °F 68.7 °F 29.8 in NE 10.2 mph 11.5 mph 53% 0 in
18:39 88 °F 69.3 °F 29.8 in ENE 10 mph 15 mph 54% 0 in
18:44 87.3 °F 69.1 °F 29.8 in ENE 10 mph 20.7 mph 55% 0 in
18:49 87.1 °F 69.1 °F 29.8 in NE 10.7 mph 13.5 mph 55% 0 in
18:54 86.9 °F 69.3 °F 29.8 in ENE 10.7 mph 17.3 mph 56% 0 in
18:59 86.5 °F 69.4 °F 29.8 in NNE 11.2 mph 18.4 mph 57% 0 in
19:04 86 °F 69.4 °F 29.8 in NNE 11.2 mph 20.7 mph 58% 0 in
19:09 85.6 °F 69.3 °F 29.8 in NE 13 mph 21.9 mph 58% 0 in
19:14 85.8 °F 69.3 °F 29.8 in NNE 13 mph 17.3 mph 58% 0 in
19:19 85.6 °F 69.3 °F 29.8 in NE 11.8 mph 15 mph 58% 0 in
19:24 85.5 °F 69.4 °F 29.8 in NE 11.8 mph 16.1 mph 59% 0 in
19:29 85.5 °F 69.1 °F 29.8 in NE 11.2 mph 19 mph 58% 0 in
19:34 84.9 °F 69.1 °F 29.8 in NE 11.2 mph 18.4 mph 59% 0 in
19:39 84.7 °F 69.3 °F 29.8 in NNE 12.5 mph 16.1 mph 60% 0 in
19:44 84.7 °F 69.3 °F 29.8 in East 12.5 mph 12.7 mph 60% 0 in
19:49 84.6 °F 69.1 °F 29.8 in NE 10.2 mph 18.4 mph 60% 0 in CLR
19:54 84.6 °F 69.1 °F 29.8 in NE 10.2 mph 15 mph 60% 0 in CLR
19:59 84.4 °F 69.1 °F 29.8 in NE 10.2 mph 16.1 mph 60% 0 in CLR
20:04 84 °F 68.5 °F 29.8 in NE 10.2 mph 17.3 mph 60% 0 in CLR
20:09 84 °F 68.5 °F 29.8 in NE 10.2 mph 17.3 mph 60% 0 in CLR
20:14 83.8 °F 69.1 °F 29.8 in NE 10.2 mph 18.4 mph 61% 0 in CLR
20:19 83.8 °F 69.4 °F 29.9 in NNE 10.7 mph 12.7 mph 62% 0 in CLR
20:24 83.8 °F 69.4 °F 29.9 in North 10.7 mph 12.7 mph 62% 0 in CLR
20:29 83.7 °F 69.3 °F 29.9 in ENE 8.7 mph 15 mph 62% 0 in CLR
20:34 83.5 °F 69.6 °F 29.9 in NE 8.7 mph 15 mph 63% 0 in CLR
20:39 83.5 °F 69.6 °F 29.9 in NE 8.7 mph 12.7 mph 63% 0 in CLR
20:44 83.1 °F 69.6 °F 29.9 in NE 8.7 mph 13.8 mph 64% 0 in CLR
20:49 82.9 °F 69.4 °F 29.9 in North 8.5 mph 17.3 mph 64% 0 in CLR
20:54 82.6 °F 69.6 °F 29.9 in NE 8.5 mph 11.5 mph 65% 0 in CLR
20:59 82.4 °F 69.4 °F 29.9 in NNE 10 mph 15 mph 65% 0 in CLR
21:04 82.2 °F 69.6 °F 29.9 in NE 10 mph 12.7 mph 66% 0 in
21:09 82.2 °F 69.6 °F 29.9 in NE 8.7 mph 10.4 mph 66% 0 in
21:14 82 °F 69.6 °F 29.9 in NE 8.7 mph 11.5 mph 66% 0 in
21:19 81.9 °F 69.4 °F 29.9 in East 5.9 mph 8.5 mph 66% 0 in
21:24 81.7 °F 69.3 °F 29.9 in ENE 5.9 mph 9.2 mph 66% 0 in
21:29 81.3 °F 68.9 °F 29.9 in ENE 5.4 mph 11.5 mph 66% 0 in
21:34 81.1 °F 69.1 °F 29.9 in NE 5.4 mph 10.7 mph 67% 0 in
21:39 81 °F 69.1 °F 29.9 in ENE 6.4 mph 9.2 mph 67% 0 in
21:44 81 °F 69.1 °F 29.9 in NE 6.4 mph 11.5 mph 67% 0 in
21:49 80.6 °F 69.1 °F 29.9 in ENE 5.9 mph 10.7 mph 68% 0 in
21:54 80.4 °F 68.9 °F 29.9 in NNE 5.9 mph 8.1 mph 68% 0 in
21:59 80.2 °F 69.1 °F 29.9 in NE 6.2 mph 9.2 mph 69% 0 in CLR
22:04 80.2 °F 69.1 °F 29.9 in ENE 6.2 mph 10.4 mph 69% 0 in CLR
22:09 80.1 °F 69.4 °F 29.9 in NE 6.9 mph 10.4 mph 70% 0 in CLR
22:14 80.1 °F 69.4 °F 29.9 in ENE 6.9 mph 8.1 mph 70% 0 in CLR
22:19 79.9 °F 69.3 °F 29.9 in NE 6.4 mph 8.5 mph 70% 0 in CLR
22:24 79.7 °F 69.1 °F 29.9 in NNE 6.4 mph 11.5 mph 70% 0 in CLR
22:28 79.7 °F 69.4 °F 29.9 in ENE 6.9 mph 9.2 mph 71% 0 in CLR
22:34 79.5 °F 69.3 °F 29.9 in ENE 6.9 mph 5.9 mph 71% 0 in CLR
22:38 79.3 °F 69.1 °F 29.9 in NE 5.9 mph 11.5 mph 71% 0 in CLR
22:39 79.3 °F 69.1 °F 29.9 in NNE 5.9 mph 9.2 mph 71% 0 in CLR
22:44 79.5 °F 69.3 °F 29.9 in NE 5.9 mph 6.9 mph 71% 0 in CLR
22:47 79.3 °F 69.4 °F 29.9 in NE 5.9 mph 9.2 mph 72% 0 in CLR
22:49 79.3 °F 69.4 °F 29.9 in NE 5.9 mph 8.1 mph 72% 0 in CLR
22:54 79.3 °F 69.4 °F 29.9 in ENE 5.9 mph 4.6 mph 72% 0 in CLR
22:59 79.2 °F 69.4 °F 29.9 in ESE 5.2 mph 4.6 mph 72% 0 in CLR
23:04 79.2 °F 69.4 °F 29.9 in NE 5.2 mph 8.1 mph 72% 0 in CLR
23:09 79 °F 69.6 °F 29.9 in ENE 3.6 mph 6.9 mph 73% 0 in CLR
23:14 79 °F 69.6 °F 29.9 in East 3.6 mph 4.6 mph 73% 0 in CLR
23:19 79 °F 69.6 °F 29.9 in NE 4 mph 4.6 mph 73% 0 in CLR
23:24 78.8 °F 69.4 °F 29.9 in NNE 4 mph 2.3 mph 73% 0 in CLR
23:29 78.8 °F 69.4 °F 29.9 in NE 2.9 mph 4.6 mph 73% 0 in CLR
23:34 78.8 °F 69.8 °F 29.9 in ENE 2.9 mph 5.8 mph 74% 0 in CLR
23:39 78.6 °F 70 °F 29.9 in NNE 3.1 mph 5.4 mph 75% 0 in CLR
23:44 78.4 °F 70 °F 29.9 in NNE 3.1 mph 5.2 mph 75% 0 in CLR
23:49 78.3 °F 70.2 °F 29.9 in NE 3.6 mph 6.2 mph 76% 0 in CLR
23:54 78.1 °F 70 °F 29.9 in NE 3.6 mph 5.8 mph 76% 0 in CLR
23:59 77.9 °F 70.2 °F 29.9 in NE 4.3 mph 5.9 mph 77% 0 in CLR
Murcia-Puente Tocinos, España
Compliments of Weather Underground - 2.5 mb

La estación de MeteoMurcia.com, publica sus datos en los siguientes proyectos:

Meteoclimatic www.awekas.at

W3Counter
Web Analytics